Station: Tasman Island  

  Atmospheric Gas Attenuation - ITU Rec 676-11   ----------------- dB/100km -----------------
Date Time Temp RH % AH g/m3 Dew Point Wind Direction Speed kph Gust kph Barometer mB Rainfall Since 9am 24GHz 47GHz 76GHz 122GHz 134GHz 241GHz
02/09 09:40 11.4 59 6.06 3.7 15 30 1005.1 0 14.3 22.3 30.7 80.2 68.0 231.6
02/09 09:30 11 60 6.01 3.5 19 32 1005.1 0 14.2 22.3 30.6 80.1 67.7 230.6
02/09 09:20 11 60 6.01 3.5 15 28 1005.2 0 14.2 22.3 30.6 80.1 67.7 230.6
02/09 09:10 10.6 59 5.76 2.9 19 32 1005.1 0 13.7 22.0 29.9 78.0 64.9 220.9
02/09 09:00 10.7 59 5.8 3 17 28 1005 0 13.7 22.0 30.0 78.3 65.3 222.3
02/09 08:50 10.4 60 5.78 3 17 33 1005.2 0.6 13.7 22.1 30.0 78.4 65.4 222.4
02/09 08:40 10.3 59 5.65 2.7 17 28 1005.2 0.6 13.4 21.9 29.6 77.2 63.8 217.0
02/09 08:30 10 62 5.83 3.1 15 24 1005.2 0.6 13.8 22.3 30.3 79.3 66.3 225.6
02/09 08:20 9.8 63 5.85 3.1 15 32 1005.2 0.6 13.9 22.3 30.5 79.7 66.7 227.1
02/09 08:10 9.8 64 5.94 3.3 15 28 1005.2 0.6 14.1 22.5 30.8 80.6 67.9 231.0
02/09 08:00 9 65 5.73 2.8 19 28 1005.2 0.6 13.7 22.4 30.3 79.3 65.9 224.1
02/09 07:50 9.1 65 5.77 2.9 19 30 1005.1 0.6 13.7 22.4 30.5 79.6 66.3 225.5
02/09 07:40 9.3 65 5.84 3.1 19 28 1004.9 0.6 13.9 22.4 30.6 80.1 67.0 228.0
02/09 07:30 9.2 64 5.72 2.8 19 30 1004.9 0.6 13.6 22.3 30.2 78.9 65.6 223.0
02/09 07:20 9 63 5.56 2.3 17 28 1004.8 0.6 13.3 22.1 29.7 77.5 63.8 216.6
02/09 07:10 9 62 5.47 2.1 17 28 1004.7 0.6 13.1 21.9 29.3 76.6 62.6 212.6
02/09 07:00 8.9 61 5.35 1.8 9 26 1004.6 0.6 12.8 21.8 28.9 75.5 61.2 207.7
02/09 06:50 8.7 63 5.45 2.1 6 20 1004.5 0.6 13.1 22.0 29.4 76.7 62.6 212.5
02/09 06:40 8.7 62 5.36 1.8 7 22 1004.3 0.6 12.9 21.8 29.0 75.8 61.5 208.6
02/09 06:30 8.8 61 5.31 1.7 11 30 1004 0.6 12.8 21.7 28.8 75.1 60.8 206.1
02/09 06:20 8.7 64 5.54 2.3 13 30 1004 0.6 13.3 22.1 29.7 77.5 63.7 216.4
02/09 06:10 8.7 66 5.71 2.7 17 30 1004.2 0.6 13.6 22.4 30.3 79.3 65.8 223.9
02/09 06:00 8.5 63 5.38 1.9 17 30 1004.2 0.6 12.9 21.9 29.2 76.1 61.9 209.9
02/09 05:50 8.6 63 5.42 2 17 26 1004.2 0.6 13.0 22.0 29.3 76.5 62.3 211.4
02/09 05:40 8.8 62 5.4 1.9 19 30 1004.2 0.6 13.0 21.9 29.1 76.1 61.9 210.0
02/09 05:30 8.7 63 5.45 2.1 13 28 1004.3 0.6 13.1 22.0 29.4 76.7 62.6 212.5
02/09 05:20 8.7 62 5.36 1.8 13 30 1004.1 0.6 12.9 21.8 29.0 75.7 61.5 208.5
02/09 05:10 8.7 61 5.28 1.6 13 30 1004.1 0.6 12.7 21.7 28.7 74.9 60.5 205.1
02/09 05:00 8.7 61 5.28 1.6 13 28 1004 0.6 12.7 21.7 28.7 74.9 60.5 205.0
02/09 04:50 8.8 61 5.31 1.7 9 28 1004 0.6 12.8 21.7 28.8 75.1 60.8 206.1
02/09 04:40 8.9 61 5.35 1.8 11 26 1004 0.6 12.8 21.8 28.9 75.4 61.2 207.6
02/09 04:30 8.9 60 5.26 1.6 17 33 1003.9 0.6 12.6 21.6 28.6 74.5 60.1 203.7
02/09 04:20 8.9 64 5.61 2.5 19 32 1003.9 0.6 13.4 22.2 29.9 78.0 64.4 218.9
02/09 04:10 9.1 64 5.68 2.7 11 28 1003.8 0.6 13.5 22.2 30.1 78.5 65.1 221.3
02/09 04:00 9.2 63 5.63 2.5 13 28 1003.8 0.6 13.4 22.1 29.8 77.9 64.4 218.9
02/09 03:50 9.1 61 5.41 2 15 32 1003.7 0.6 13.0 21.8 29.0 75.8 61.8 209.6
02/09 03:40 9.1 59 5.24 1.5 13 30 1003.6 0.6 12.6 21.5 28.4 74.1 59.7 202.2
02/09 03:30 9.1 60 5.33 1.8 13 35 1003.4 0.6 12.8 21.7 28.7 75.0 60.8 206.1
02/09 03:20 9.1 60 5.33 1.8 7 26 1003.5 0.6 12.8 21.7 28.7 75.0 60.8 206.1
02/09 03:10 9.2 60 5.36 1.9 11 28 1003.6 0.6 12.9 21.7 28.8 75.2 61.1 207.1
02/09 03:00 9.1 62 5.5 2.2 6 22 1003.6 0.6 13.2 21.9 29.4 76.7 62.9 213.5
02/09 02:50 9.2 62 5.54 2.3 7 30 1003.5 0.6 13.2 22.0 29.5 77.0 63.3 214.9
02/09 02:40 9.2 60 5.36 1.9 11 30 1003.5 0.6 12.9 21.7 28.8 75.2 61.1 207.1
02/09 02:30 9.4 62 5.61 2.5 13 39 1003.4 0.6 13.4 22.0 29.7 77.5 64.0 217.4
02/09 02:20 9.4 64 5.79 2.9 13 30 1003.6 0.6 13.8 22.3 30.4 79.3 66.2 225.3
02/09 02:10 9.6 63 5.77 2.9 13 28 1003.7 0.6 13.7 22.2 30.2 78.9 65.8 223.9
02/09 02:00 9.7 61 5.63 2.6 7 26 1003.8 0.6 13.4 22.0 29.7 77.5 64.0 217.5
02/09 01:50 9.7 61 5.63 2.7 13 22 1003.5 0.6 13.4 22.0 29.6 77.4 64.0 217.5
02/09 01:40 9.5 61 5.55 2.4 9 35 1003 0.6 13.2 21.9 29.4 76.8 63.1 214.4
02/09 01:30 9.5 61 5.55 2.4 11 24 1003 0.6 13.2 21.9 29.4 76.8 63.1 214.4
02/09 01:20 9.4 62 5.61 2.5 7 22 1003.1 0.6 13.4 22.0 29.7 77.5 64.0 217.3
02/09 01:10 9.5 77 7.01 5.7 11 26 1003.2 0.6 16.4 24.2 35.0 91.8 81.7 279.6
02/09 01:00 9.5 77 7.01 5.7 15 32 1003.3 0.6 16.4 24.2 35.0 91.8 81.7 279.6
02/09 00:50 9.5 79 7.19 6 9 28 1003.1 0.6 16.8 24.4 35.7 93.7 84.1 287.8
02/09 00:40 9.5 79 7.19 6 13 28 1003.1 0.6 16.8 24.4 35.7 93.7 84.1 287.8
02/09 00:30 9.6 79 7.24 6.1 13 26 1003.2 0.6 16.9 24.5 35.9 94.2 84.6 289.8
02/09 00:20 9.5 80 7.28 6.2 9 24 1003.2 0.6 17.0 24.6 36.1 94.7 85.3 292.0
02/09 00:10 9.6 83 7.61 6.9 9 26 1003.2 0.6 17.7 25.1 37.4 98.1 89.5 307.0
02/09 00:00 9.5 81 7.38 6.4 7 28 1002.8 0.6 17.2 24.7 36.5 95.7 86.6 296.6
01/09 23:50 9.4 81 7.33 6.3 9 28 1002.6 0.6 17.1 24.7 36.3 95.3 86.0 294.6
01/09 23:40 9.2 82 7.32 6.3 9 33 1002.5 0.6 17.1 24.7 36.4 95.4 86.1 294.8
01/09 23:30 9.3 83 7.46 6.6 13 33 1002.6 0.6 17.4 24.9 36.9 96.8 87.8 301.0
01/09 23:20 9.3 85 7.64 6.9 13 33 1002.6 0.6 17.7 25.2 37.6 98.8 90.2 309.5
01/09 23:10 9.2 88 7.86 7.3 15 35 1002.3 0.6 18.2 25.6 38.6 101.3 93.3 320.2
01/09 23:00 9.4 88 7.96 7.5 15 35 1002.2 0.6 18.4 25.7 38.9 102.1 94.4 324.1
01/09 22:50 9.5 89 8.1 7.8 19 43 1002.4 0.6 18.7 25.9 39.4 103.6 96.2 330.4
01/09 22:40 9.3 90 8.09 7.7 24 43 1002.4 0.6 18.7 26.0 39.5 103.7 96.3 330.8
01/09 22:30 9.5 89 8.1 7.8 26 48 1002.5 0.4 18.7 25.9 39.4 103.6 96.2 330.4
01/09 22:20 9.7 88 8.11 7.8 22 48 1002.5 0.4 18.7 25.9 39.4 103.4 96.1 330.1
01/09 22:10 9.6 88 8.06 7.7 24 46 1002.8 0.4 18.6 25.8 39.2 103.0 95.6 328.2
01/09 22:00 9.8 90 8.35 8.2 24 44 1002.5 0.4 19.3 26.3 40.3 106.0 99.3 341.1
01/09 21:50 9.8 92 8.54 8.6 20 44 1002.5 0.4 19.7 26.6 41.1 108.1 101.9 350.3
01/09 21:40 9.5 93 8.47 8.4 20 44 1002.5 0.4 19.5 26.5 41.0 107.7 101.3 348.3
01/09 21:30 10.1 95 8.99 9.3 22 39 1002.5 0.4 20.6 27.2 42.9 112.7 107.7 370.8
01/09 21:20 10.3 94 9 9.4 26 43 1002.1 0.2 20.6 27.2 42.8 112.5 107.6 370.2
01/09 21:10 11.6 85 8.84 9.2 15 35 1002.2 0.2 20.2 26.5 41.4 108.9 103.6 356.4
01/09 21:00 13.8 68 8.1 8 26 46 1001.6 0 18.5 24.7 37.3 98.0 91.0 312.6
01/09 20:50 13.9 67 8.03 7.9 28 44 1001.4 0 18.4 24.5 37.0 97.1 89.9 309.0
01/09 20:40 14.1 64 7.77 7.4 22 46 1001.2 0 17.8 24.1 35.9 94.1 86.4 296.6
01/09 20:30 14.2 63 7.69 7.3 28 43 1000.9 0 17.6 23.9 35.5 93.2 85.2 292.6
01/09 20:20 14.1 64 7.77 7.4 24 43 1000.9 0 17.8 24.0 35.9 94.1 86.4 296.5
01/09 20:10 13.9 64 7.67 7.2 26 46 1000.9 0 17.6 23.9 35.6 93.3 85.3 292.8
01/09 20:00 13.8 64 7.63 7.1 26 39 1000.9 0 17.5 23.9 35.5 93.0 84.9 291.4
01/09 19:50 14 63 7.6 7.1 28 46 1001 0 17.5 23.8 35.3 92.5 84.3 289.4
01/09 19:40 14.1 63 7.65 7.2 22 41 1001.1 0 17.6 23.9 35.4 92.9 84.9 291.2
01/09 19:30 14.1 62 7.52 6.9 20 32 1001.1 0 17.3 23.7 34.9 91.6 83.2 285.5
01/09 19:20 14.1 62 7.52 6.9 20 46 1000.9 0 17.3 23.7 34.9 91.6 83.2 285.5
01/09 19:10 14.2 61 7.45 6.8 24 50 1000.8 0 17.1 23.5 34.6 90.7 82.2 282.0
01/09 19:00 14.3 60 7.37 6.6 26 44 1000.9 0 17.0 23.4 34.3 89.8 81.1 278.2
01/09 18:50 14.4 60 7.42 6.7 26 41 1001 0 17.1 23.4 34.4 90.2 81.6 280.0
01/09 18:40 14.4 58 7.17 6.3 19 41 1001 0 16.5 23.0 33.5 87.7 78.6 269.2
01/09 18:30 14.7 57 7.18 6.3 28 44 1001.2 0 16.5 23.0 33.4 87.5 78.4 268.7
01/09 18:20 14.8 57 7.22 6.4 24 43 1001.3 0 16.6 23.0 33.5 87.8 78.8 270.1
01/09 18:10 14.8 56 7.09 6.1 20 37 1001.6 0 16.3 22.8 33.0 86.5 77.2 264.6
01/09 18:00 14.9 55 7.01 6 19 33 1001.6 0 16.2 22.7 32.7 85.6 76.2 260.8
01/09 17:50 15 55 7.05 6 20 32 1001.7 0 16.2 22.7 32.8 85.9 76.5 262.2
01/09 17:40 15.1 54 6.97 5.9 22 35 1001.8 0 16.1 22.6 32.5 85.1 75.5 258.5
01/09 17:30 15.2 54 7.01 6 24 44 1001.6 0 16.1 22.6 32.6 85.3 75.9 259.9
01/09 17:20 15.3 53 6.92 5.8 30 48 1001.5 0 16.0 22.5 32.2 84.3 74.7 255.7
01/09 17:10 15.4 53 6.96 5.9 28 50 1001.5 0 16.0 22.5 32.3 84.6 75.1 257.1

Last Refresh: 02-Sep-2026 09:18:03

Bureau of Meteorology